#timestamp,LO_Frequency,Hit,StdDev 
1556791215.1,286047001.2,N
1556791235.9,286047000.5,N
1556791255.7,286046999.3,N
1556791275.6,286046999.1,N
1556791295.4,286046997.1,N
1556791315.2,286046999.3,N
1556791335.1,286046999.2,N
1556791336.0,286046999.2,N
1556791355.8,286046999.5,N
1556791375.6,286046999.6,N
1556791395.5,286047001.2,N
1556791415.3,286047000.9,N
1556791435.2,286047000.2,N
1556791455.9,286047002.2,N
1556791475.7,286047000.1,N
1556791495.6,286047000.4,N
1556791515.4,286047000.0,N
1556791535.2,286047000.1,N
1556791555.1,286047000.3,N
1556791556.0,286047000.3,N
1556791575.8,286047000.0,N
1556791595.7,286047001.2,N
1556791615.5,286047000.9,N
1556791635.3,286047003.8,Y
1556791655.2,286047003.2,P
1556791675.0,286047003.4,N
1556791675.9,286047003.4,N
1556791695.8,286047005.9,Y
1556791715.6,286047004.2,P
1556791735.4,286047004.1,P
1556791755.3,286047003.0,P
1556791775.1,286047003.6,Y
1556791795.8,286047000.9,P
1556791815.7,286046999.3,N
1556791835.5,286046998.7,N
1556791855.4,286047001.2,N
1556791875.2,286046999.9,N
1556791895.0,286046998.6,N
1556791895.9,286046998.6,N
1556791915.8,286046999.3,N
1556791935.6,286046996.9,N
1556791955.4,286046997.4,N
1556791975.3,286046997.1,N
1556791995.1,286046999.1,N
1556792015.9,286046999.8,N
1556792035.7,286047002.2,N
1556792055.5,286047000.8,N
1556792075.4,286046999.3,N
1556792095.2,286046994.9,Y
1556792115.0,286046997.7,P
1556792115.9,286046997.7,N
1556792135.8,286046997.7,N
1556792155.6,286046997.1,Y
1556792175.5,286046998.2,P
1556792195.3,286047000.9,P
1556792215.1,286046999.0,N
1556792235.9,286046999.2,N
1556792255.7,286046998.3,N
1556792275.5,286047000.9,N
1556792295.4,286046998.2,N
1556792315.2,286046999.0,N
1556792335.1,286046996.7,Y
1556792336.0,286046996.7,P
1556792355.8,286046997.0,N
1556792375.6,286046998.8,N
1556792395.5,286047001.0,N
1556792415.3,286047000.8,N
1556792435.1,286046999.3,N
1556792455.9,286046999.4,N
1556792475.7,286046999.5,N
1556792495.6,286046997.1,N
1556792515.4,286046996.1,N
1556792535.2,286046995.4,N
1556792555.1,286046996.4,N
1556792556.0,286046996.4,N
1556792575.8,286046996.4,N
1556792595.6,286046993.8,Y
1556792615.5,286046997.2,P
1556792635.3,286046996.5,P
1556792655.2,286047000.7,N
1556792675.9,286047001.1,N
1556792695.7,286047002.7,N
1556792715.6,286047002.0,N
1556792735.4,286046998.6,N
1556792755.2,286046998.9,N
1556792775.1,286046999.6,N
1556792776.0,286046999.6,N
1556792795.8,286046999.2,N
1556792815.7,286046995.8,N
1556792835.5,286046996.3,N
1556792855.3,286046995.1,N
1556792875.2,286046996.2,N
1556792895.0,286046993.7,N
1556792895.9,286046993.7,N
1556792915.7,286046996.4,N
1556792935.6,286046996.1,N
1556792955.4,286046993.7,N
1556792975.3,286046995.9,N
1556792995.1,286046995.8,N
1556792996.0,286046995.8,N
1556793015.8,286046996.4,N
1556793035.7,286046996.1,N
1556793055.5,286046993.9,N
1556793075.3,286046993.6,N
1556793095.2,286046996.3,N
1556793115.0,286046996.0,N
1556793115.9,286046996.0,N
1556793135.8,286046993.6,N
1556793155.6,286046994.0,N
1556793175.4,286046991.7,Y
1556793195.3,286046997.8,P
1556793215.1,286046997.6,P
1556793235.8,286046998.0,P
1556793255.7,286046995.1,Y
1556793275.5,286046996.5,P
1556793295.4,286046999.4,N
1556793315.2,286046998.5,N
1556793335.0,286047000.8,N
1556793335.9,286047000.8,N
1556793355.8,286047000.2,N
1556793375.6,286046999.9,N
1556793395.5,286047001.1,N
1556793415.3,286047000.9,N
1556793435.1,286047000.7,N
1556793455.9,286047000.0,N
1556793475.7,286047002.6,N
1556793495.5,286047004.4,N
1556793515.4,286047002.2,N
1556793535.2,286047001.7,N
1556793555.1,286047001.4,N
1556793556.0,286047001.4,N
1556793575.8,286047001.3,N
1556793595.6,286047003.5,N
1556793615.5,286047005.8,Y
1556793635.3,286047004.0,P
1556793655.2,286047002.3,N
1556793675.9,286047002.6,N
1556793695.7,286046999.8,N
1556793715.6,286047000.5,N
1556793735.4,286047000.9,N
1556793755.2,286046998.3,N
1556793775.1,286046999.3,N
1556793776.0,286046999.3,N
1556793795.8,286046998.8,N
1556793815.7,286046999.3,N
1556793835.5,286046998.5,N
1556793855.3,286047001.2,N
1556793875.2,286046999.9,N
1556793895.9,286047001.0,N
1556793915.7,286047000.4,N
1556793935.6,286046998.5,N
1556793955.4,286046998.2,N
1556793975.2,286047001.0,N
1556793995.1,286047000.6,N
1556793996.0,286047000.6,N
1556794015.8,286046999.8,N
1556794035.7,286046999.8,N
1556794055.5,286047002.0,N
1556794075.3,286047003.9,N
1556794095.2,286047001.4,N
1556794115.0,286047002.0,N
1556794115.9,286047002.0,N
1556794135.8,286047001.3,N
1556794155.6,286047003.8,N
1556794175.4,286047003.1,N
1556794195.3,286047004.7,Y
1556794215.1,286047003.4,P
1556794235.8,286047003.2,N
1556794255.7,286047006.0,P
1556794275.5,286047005.8,Y
1556794295.4,286046999.7,P
1556794315.2,286047001.0,N
1556794335.0,286046998.8,N
1556794335.9,286046998.8,N
1556794355.8,286046999.2,N
1556794375.6,286046999.6,N
1556794395.4,286046994.9,Y
1556794415.3,286046997.5,P
1556794435.1,286046997.1,N
1556794455.9,286047001.2,N
1556794475.7,286046998.9,N
1556794495.5,286046998.8,N
1556794515.4,286046998.6,N
1556794535.2,286046998.2,N
1556794555.0,286046998.1,N
1556794555.9,286046998.1,N
1556794575.8,286046996.9,N
1556794595.6,286046998.8,N
1556794615.5,286046998.5,N
1556794635.3,286046998.4,N
1556794655.1,286046998.7,N
1556794675.9,286046996.9,Y
1556794695.7,286047000.6,P
1556794715.5,286047000.1,N
1556794735.4,286046999.8,N
1556794755.2,286047002.5,Y
1556794775.1,286047004.0,P
1556794795.0,286047004.2,N
1556794795.9,286047004.2,N
